Wind_Speed
25 25 25 25 25 26 26 27 27 27 27 27 27 28 28 27 27 27 28 28 27 28 28 28 28 28 28 29 29 29 28 28 28 29 29 30 30 30 30 30 29 30 31
24 25 24 24 25 26 26 27 27 26 26 26 26 26 26 26 26 26 26 26 26 26 26 26 26 27 27 27 28 28 27 27 27 27 28 28 28 28 28 29 29 29 29
24 24 24 24 25 25 26 26 26 25 25 25 25 25 25 26 26 25 25 25 25 25 24 24 25 25 25 26 26 26 26 26 27 27 27 26 27 27 27 27 28 28 29
23 23 23 23 24 24 24 24 24 24 24 24 24 24 24 24 24 24 24 24 24 23 23 23 23 24 24 24 24 24 24 25 25 26 26 26 25 25 26 26 26 26 27
22 22 22 22 22 22 22 22 22 22 23 22 22 22 22 22 21 21 21 21 22 22 22 21 21 22 22 22 22 23 23 23 24 24 25 25 24 23 24 24 24 23 24
21 21 20 21 20 20 20 20 20 20 21 21 20 20 20 19 19 18 18 18 19 19 19 20 20 20 20 20 21 21 21 21 21 21 22 22 22 22 22 21 21 21 21
18 18 18 18 17 17 17 17 17 17 17 17 17 17 17 16 16 16 16 16 16 16 17 17 17 17 17 17 18 18 18 18 18 17 18 18 18 18 19 18 18 18 19
16 16 16 16 16 16 16 16 16 16 15 15 14 14 14 14 14 14 14 14 14 13 13 13 13 13 14 14 14 14 15 15 15 14 14 14 14 13 13 14 14 15 16
14 15 14 14 14 14 15 14 13 13 13 12 12 12 12 12 11 11 11 10 10 9 9 8 8 9 9 10 10 10 11 11 11 11 10 10 10 10 10 11 12 12 12
14 14 14 13 13 13 13 13 12 11 11 10 10 9 9 9 8 8 8 7 6 5 5 5 5 5 5 5 6 6 7 7 8 8 8 8 7 7 7 7 7 8 8
13 13 12 11 11 11 12 11 10 9 8 8 7 7 6 6 6 6 5 5 4 3 3 3 2 1 1 2 3 3 4 4 5 5 5 4 4 3 3 4 4 4 4
11 11 11 10 10 11 10 10 9 8 7 6 5 5 5 5 5 5 5 4 3 3 3 3 3 3 3 4 5 5 4 4 4 4 4 4 3 2 2 2 2 3 3
11 10 10 9 9 10 9 9 8 8 7 6 5 5 5 5 5 5 6 5 5 5 6 6 6 6 7 7 7 6 6 6 6 5 5 5 4 2 1 0 1 2 4
10 10 9 9 9 9 9 8 8 8 7 7 6 6 6 6 6 7 8 8 8 8 8 8 9 9 10 10 9 9 9 8 7 6 5 4 4 3 2 2 2 2 3
9 9 9 9 9 9 8 9 9 9 8 8 8 8 8 8 9 10 10 10 11 11 11 11 12 12 12 11 11 10 9 9 9 8 7 6 5 5 4 4 4 3 4
8 8 8 8 8 9 9 9 9 10 10 10 10 10 10 10 11 12 12 12 12 12 11 12 13 13 13 12 12 12 11 11 10 9 8 7 6 6 5 5 5 5 6
8 8 8 8 9 9 10 10 10 10 11 11 11 11 12 12 12 12 13 13 13 13 13 13 13 13 13 13 12 11 10 9 8 7 7 7 6 6 6 6 7 7 8
9 9 9 9 9 10 10 11 11 11 11 12 12 12 13 13 13 13 13 13 13 13 13 13 13 13 12 12 11 11 10 9 8 8 7 7 7 7 7 8 8 8 9
9 9 9 10 10 10 10 11 11 12 12 12 12 12 13 13 13 13 13 13 13 13 12 12 13 13 12 12 11 10 9 9 9 8 8 8 8 8 8 8 9 10 11
9 9 9 9 10 10 10 11 11 12 12 12 12 12 12 11 11 12 12 13 13 12 12 12 12 11 11 10 10 9 9 9 9 9 9 9 9 9 9 10 11 12 13
8 8 8 8 9 9 10 10 10 10 10 11 11 10 10 10 10 11 11 11 11 11 11 10 10 9 9 9 9 8 8 8 8 8 9 9 10 10 11 12 13 14 16
8 7 7 8 8 8 8 9 9 9 9 9 9 9 9 9 9 9 9 9 9 9 9 9 8 8 8 8 8 7 7 7 8 8 9 10 11 12 13 14 16 17 18
7 7 7 7 7 6 6 6 6 7 7 7 7 7 7 7 7 7 7 6 6 6 6 6 7 7 6 6 6 6 7 7 8 9 11 12 13 14 15 17 18 20 21
5 6 6 5 5 6 5 5 5 5 4 4 5 5 5 5 5 5 4 4 4 4 4 5 5 5 5 5 6 7 8 9 10 11 13 14 15 16 18 19 21 22 23
4 3 3 3 3 3 3 3 3 3 2 2 3 3 3 4 3 3 4 4 4 4 4 4 4 5 6 7 7 9 10 11 12 14 15 16 18 19 20 22 23 24 25
3 2 2 2 2 3 3 3 3 3 3 3 3 4 4 4 4 4 5 5 5 5 6 6 7 7 8 9 10 11 12 14 15 16 18 19 20 22 23 24 25 26 27
Wind_Direction
289 288 286 286 288 289 289 290 288 285 284 284 282 282 282 282 282 280 279 276 274 272 270 268 266 264 264 264 264 264 265 263 261 260 260 261 262 262 263 263 262 261 261
292 293 291 290 290 290 290 292 290 287 286 285 284 284 284 284 282 281 279 277 274 272 270 269 267 266 265 264 264 263 264 262 261 261 260 261 262 262 262 264 263 263 264
292 293 293 293 292 292 292 291 290 288 288 287 285 284 284 284 284 283 280 278 274 272 270 269 267 266 265 264 264 263 263 263 261 259 259 261 262 262 262 263 265 264 266
293 294 295 294 293 292 292 291 290 289 289 288 286 285 286 285 285 284 281 278 275 273 272 271 269 267 265 264 263 262 262 262 262 260 260 261 261 261 262 263 266 267 267
294 295 296 295 294 293 292 291 290 290 290 290 289 287 288 288 286 285 283 280 277 275 274 272 270 268 266 263 262 262 262 261 261 261 259 260 260 261 262 263 265 267 268
294 294 295 296 296 297 296 295 294 293 292 292 292 291 291 290 289 289 287 285 281 278 275 273 271 269 267 264 262 261 260 260 261 261 259 260 259 260 260 262 264 268 270
299 299 298 298 300 301 302 301 300 299 297 295 295 295 293 292 293 293 291 290 287 282 279 275 271 268 265 262 260 259 259 259 259 260 260 260 259 259 260 262 263 266 269
306 306 302 301 303 307 307 306 305 305 302 300 299 299 298 298 297 297 296 295 293 289 283 280 275 268 263 259 258 257 256 255 254 255 259 259 256 256 257 259 261 267 270
313 313 310 310 311 313 314 313 311 310 307 305 306 306 304 303 302 302 304 302 299 294 288 282 277 268 262 257 252 249 248 249 249 248 251 253 250 249 251 256 260 267 270
318 317 316 316 316 318 321 320 318 316 315 312 313 313 311 311 313 315 314 311 308 307 308 302 282 270 261 244 235 233 235 237 239 236 240 244 243 243 246 250 256 264 272
324 322 322 324 327 329 329 329 328 329 327 325 325 327 325 325 333 334 333 328 327 335 340 337 319 260 195 194 196 195 201 209 213 215 219 217 207 208 221 234 253 274 283
332 330 332 335 337 339 339 342 345 348 350 350 352 355 354 352 360 7 10 12 20 32 40 48 61 84 101 115 129 136 146 154 154 155 156 154 153 161 188 230 275 294 291
344 343 344 348 349 351 354 360 6 12 18 22 24 23 26 31 38 37 36 42 56 66 70 77 86 94 101 107 114 115 119 123 126 131 134 135 139 139 126 9 317 297 296
355 358 358 359 1 5 13 22 30 35 37 39 43 52 52 52 52 54 58 62 71 78 81 81 90 92 97 99 104 106 109 109 113 120 126 121 113 95 62 32 14 349 327
358 2 8 12 15 25 33 38 42 47 51 54 59 62 63 65 65 65 66 75 82 82 83 86 89 91 92 93 97 102 101 99 101 101 94 87 80 64 50 47 35 11 357
10 14 19 25 33 42 46 49 53 55 57 61 64 66 70 74 75 76 77 82 85 84 82 85 88 89 91 94 96 97 95 93 90 87 86 79 68 59 52 43 32 22 12
27 29 33 42 50 55 58 61 63 64 65 66 68 70 74 78 81 79 78 83 84 85 86 85 87 88 90 93 92 90 88 86 83 80 73 62 59 53 44 38 31 20 9
41 46 51 58 63 65 68 68 68 69 69 72 72 73 77 80 82 80 80 83 83 83 84 85 85 87 88 88 87 85 82 78 74 69 62 55 49 43 36 29 21 10 359
51 56 61 66 69 71 72 71 73 73 72 73 74 77 80 82 80 78 77 78 80 81 82 83 83 83 83 83 83 80 75 70 66 60 56 51 43 34 25 15 6 357 350
56 59 64 69 73 74 73 74 75 75 74 74 75 77 80 80 80 77 77 75 78 80 81 82 80 79 79 76 73 71 67 63 59 53 44 35 25 16 7 359 353 347 343
57 60 66 72 74 74 74 75 77 75 73 74 75 76 75 75 75 77 77 73 75 77 78 76 75 72 69 66 64 61 56 50 43 34 25 16 8 2 356 350 346 342 339
58 62 68 73 75 76 76 74 73 74 74 72 72 73 72 70 72 75 73 72 70 70 71 68 65 60 56 54 51 47 40 31 22 14 6 0 356 351 347 343 339 336 334
55 59 65 69 74 76 74 71 72 74 71 67 67 66 64 64 64 64 64 63 63 62 56 49 46 42 39 37 34 27 17 8 1 356 352 348 344 340 338 336 334 333 332
53 56 57 63 66 66 64 63 61 62 62 58 55 48 45 45 46 45 45 43 37 30 25 22 22 18 12 7 3 355 349 345 342 340 338 337 335 333 332 331 330 329 329
38 42 46 50 49 45 44 40 34 30 25 18 11 5 0 2 6 4 2 1 356 350 349 349 348 345 341 337 334 333 332 331 330 330 330 330 329 329 329 328 327 326 326
350 353 351 346 340 342 346 345 342 338 332 327 326 328 328 328 326 324 324 323 322 325 326 324 323 325 324 323 323 324 325 325 325 324 325 326 326 325 325 325 325 325 325
Height
5791 5788 5786 5784 5782 5780 5778 5776 5773 5771 5769 5768 5766 5765 5763 5762 5760 5759 5758 5757 5756 5756 5756 5756 5757 5757 5758 5758 5759 5759 5760 5761 5762 5763 5763 5764 5765 5766 5767 5768 5769 5769 5770
5785 5782 5780 5778 5776 5773 5771 5769 5767 5764 5762 5761 5759 5757 5756 5754 5753 5751 5750 5749 5749 5749 5749 5749 5749 5750 5750 5751 5751 5752 5753 5753 5754 5755 5756 5757 5758 5759 5760 5761 5762 5762 5762
5779 5777 5774 5771 5769 5767 5764 5762 5760 5757 5756 5754 5752 5750 5748 5747 5745 5744 5743 5742 5742 5741 5741 5742 5742 5742 5743 5743 5744 5744 5745 5746 5747 5748 5749 5750 5751 5752 5753 5754 5754 5755 5755
5774 5771 5768 5765 5762 5760 5757 5755 5753 5751 5749 5747 5745 5743 5741 5740 5738 5737 5736 5735 5735 5734 5734 5734 5735 5735 5735 5736 5737 5737 5738 5739 5739 5740 5741 5743 5744 5745 5746 5747 5748 5748 5749
5768 5765 5762 5759 5757 5754 5751 5749 5746 5744 5742 5740 5738 5736 5735 5733 5732 5731 5730 5729 5728 5728 5727 5727 5728 5728 5728 5729 5730 5731 5731 5732 5733 5734 5735 5736 5737 5738 5739 5740 5741 5742 5742
5763 5760 5757 5754 5751 5748 5746 5743 5740 5738 5736 5735 5733 5731 5729 5728 5726 5725 5724 5723 5722 5721 5721 5721 5721 5722 5722 5723 5723 5724 5725 5726 5727 5728 5729 5730 5731 5732 5733 5734 5735 5736 5736
5758 5755 5752 5749 5746 5743 5741 5738 5736 5733 5732 5730 5728 5726 5725 5723 5722 5721 5719 5718 5717 5716 5716 5715 5715 5715 5716 5717 5717 5718 5719 5721 5722 5722 5723 5724 5725 5726 5727 5728 5729 5730 5730
5754 5751 5748 5745 5742 5740 5737 5734 5732 5729 5727 5726 5724 5722 5721 5719 5718 5717 5715 5714 5712 5711 5711 5710 5710 5710 5710 5711 5712 5713 5714 5715 5717 5718 5719 5720 5721 5722 5723 5724 5725 5725 5726
5751 5748 5745 5742 5739 5736 5733 5731 5728 5726 5724 5722 5720 5719 5717 5716 5715 5713 5712 5711 5709 5708 5707 5707 5706 5706 5706 5707 5707 5709 5710 5711 5713 5714 5715 5716 5717 5718 5720 5721 5722 5722 5722
5748 5745 5742 5739 5737 5734 5731 5728 5725 5723 5721 5719 5718 5716 5715 5714 5712 5711 5710 5708 5707 5706 5705 5704 5704 5704 5704 5704 5705 5706 5708 5709 5710 5711 5713 5714 5715 5716 5717 5718 5719 5719 5719
5746 5743 5740 5737 5735 5732 5729 5726 5724 5721 5719 5717 5716 5714 5713 5712 5711 5710 5708 5707 5706 5705 5704 5703 5703 5702 5702 5703 5704 5705 5707 5708 5709 5710 5711 5713 5714 5715 5716 5716 5717 5717 5717
5744 5741 5738 5736 5733 5731 5728 5725 5722 5720 5718 5716 5715 5714 5713 5712 5711 5709 5708 5707 5706 5705 5704 5703 5703 5703 5703 5703 5704 5705 5706 5708 5709 5710 5711 5712 5713 5714 5715 5716 5716 5716 5716
5743 5740 5737 5735 5732 5730 5727 5725 5722 5720 5718 5717 5715 5714 5713 5712 5711 5710 5709 5707 5706 5706 5705 5704 5704 5704 5704 5705 5705 5706 5707 5708 5710 5711 5712 5713 5714 5714 5715 5715 5715 5715 5715
5742 5740 5737 5735 5732 5730 5727 5725 5723 5721 5719 5718 5717 5715 5714 5714 5713 5711 5710 5709 5708 5707 5707 5706 5706 5706 5706 5707 5707 5708 5709 5710 5711 5712 5713 5713 5714 5714 5714 5714 5714 5714 5714
5742 5740 5737 5735 5733 5730 5728 5726 5724 5723 5721 5720 5719 5718 5717 5716 5715 5713 5712 5711 5711 5710 5710 5709 5709 5709 5709 5709 5710 5711 5712 5712 5713 5713 5714 5714 5714 5715 5715 5714 5714 5714 5713
5742 5740 5738 5736 5734 5732 5730 5728 5727 5725 5724 5723 5722 5720 5719 5718 5717 5717 5715 5715 5714 5714 5713 5713 5712 5712 5713 5713 5713 5714 5714 5715 5715 5715 5716 5716 5716 5716 5715 5714 5714 5713 5712
5743 5741 5739 5737 5736 5734 5733 5731 5730 5728 5727 5726 5725 5724 5723 5722 5721 5720 5719 5719 5718 5717 5717 5717 5716 5716 5716 5717 5717 5717 5717 5718 5718 5718 5718 5717 5717 5716 5716 5715 5714 5713 5711
5744 5743 5741 5740 5738 5737 5735 5734 5733 5732 5730 5729 5728 5727 5726 5726 5725 5724 5723 5723 5722 5721 5721 5721 5721 5720 5720 5720 5720 5721 5720 5720 5720 5720 5719 5718 5718 5717 5716 5715 5714 5712 5711
5746 5745 5744 5742 5741 5740 5738 5737 5736 5735 5734 5733 5732 5731 5730 5730 5729 5728 5727 5727 5726 5725 5725 5725 5725 5724 5724 5724 5724 5723 5723 5723 5722 5721 5721 5720 5718 5717 5716 5715 5713 5712 5710
5749 5747 5746 5745 5744 5743 5742 5741 5740 5739 5738 5737 5736 5735 5734 5734 5733 5732 5731 5730 5730 5729 5729 5729 5728 5728 5728 5727 5727 5726 5725 5725 5724 5723 5722 5721 5719 5718 5716 5714 5712 5710 5708
5751 5750 5748 5747 5747 5746 5745 5744 5743 5742 5742 5741 5740 5739 5738 5737 5736 5736 5735 5734 5733 5733 5732 5732 5732 5731 5730 5730 5729 5728 5727 5726 5725 5724 5723 5721 5719 5717 5715 5713 5711 5708 5705
5753 5752 5751 5750 5749 5749 5748 5747 5746 5745 5744 5744 5743 5742 5741 5740 5739 5739 5738 5737 5737 5736 5735 5735 5734 5733 5732 5732 5731 5729 5728 5727 5726 5724 5723 5721 5718 5716 5714 5711 5709 5705 5702
5755 5754 5753 5752 5752 5751 5750 5749 5748 5748 5747 5746 5745 5745 5744 5743 5742 5741 5740 5740 5739 5738 5737 5736 5735 5735 5733 5732 5731 5730 5729 5727 5726 5724 5722 5719 5717 5714 5712 5709 5706 5702 5698
5756 5755 5755 5754 5753 5753 5752 5751 5750 5749 5749 5748 5747 5746 5745 5745 5744 5743 5742 5741 5740 5739 5738 5737 5736 5735 5734 5732 5731 5730 5728 5726 5724 5722 5720 5717 5714 5712 5708 5705 5702 5698 5694
5757 5757 5756 5755 5755 5754 5753 5752 5751 5750 5750 5749 5748 5747 5746 5745 5744 5743 5742 5741 5740 5739 5738 5737 5736 5735 5733 5732 5730 5729 5727 5725 5722 5720 5717 5714 5711 5708 5705 5701 5697 5693 5688
5757 5757 5756 5756 5755 5754 5753 5753 5752 5751 5750 5749 5748 5747 5746 5745 5744 5743 5742 5741 5740 5739 5737 5736 5735 5733 5732 5730 5728 5726 5724 5722 5720 5717 5713 5710 5707 5704 5700 5696 5692 5687 5683